| time (UTC) | temp F | wind direction | speed MPH | gust MPH | rain 1hr in | rain 24hr in | rain mn in | humidity % | barometer mb |
| 20260510122513 | 43 | 72 | 2.0 | 4.0 | 0.00 | 0.00 | 0.00 | 63 | 1020.1 |
| 20260510122012 | 43 | 65 | 2.0 | 5.0 | 0.00 | 0.00 | 0.00 | 64 | 1020.0 |
| 20260510121512 | 43 | 58 | 1.0 | 4.0 | 0.00 | 0.00 | 0.00 | 64 | 1020.0 |
| 20260510121013 | 43 | 63 | 2.0 | 4.0 | 0.00 | 0.00 | 0.00 | 64 | 1019.9 |
| 20260510120513 | 43 | 58 | 3.0 | 4.0 | 0.00 | 0.00 | 0.00 | 64 | 1019.8 |
| 20260510120012 | 43 | 64 | 3.0 | 4.0 | 0.00 | 0.00 | 0.00 | 64 | 1019.7 |
| 20260510115509 | 43 | 63 | 2.0 | 3.0 | 0.00 | 0.00 | 0.00 | 64 | 1019.6 |
| 20260510115009 | 43 | 63 | 2.0 | 4.0 | 0.00 | 0.00 | 0.00 | 64 | 1019.6 |
| 20260510114508 | 43 | 60 | 3.0 | 5.0 | 0.00 | 0.00 | 0.00 | 64 | 1019.5 |
| 20260510114010 | 43 | 64 | 3.0 | 5.0 | 0.00 | 0.00 | 0.00 | 64 | 1019.4 |
| 20260510113506 | 43 | 59 | 4.0 | 5.0 | 0.00 | 0.00 | 0.00 | 63 | 1019.4 |
| 20260510113006 | 43 | 68 | 4.0 | 6.0 | 0.00 | 0.00 | 0.00 | 63 | 1019.3 |
| 20260510112508 | 43 | 60 | 4.0 | 8.0 | 0.00 | 0.00 | 0.00 | 62 | 1019.2 |
| 20260510112005 | 43 | 52 | 5.0 | 8.0 | 0.00 | 0.00 | 0.00 | 62 | 1019.2 |
| 20260510111504 | 43 | 61 | 6.0 | 9.0 | 0.00 | 0.00 | 0.00 | 61 | 1019.2 |
| 20260510111003 | 43 | 56 | 3.0 | 7.0 | 0.00 | 0.00 | 0.00 | 60 | 1019.1 |
| 20260510110502 | 43 | 47 | 4.0 | 7.0 | 0.00 | 0.00 | 0.00 | 60 | 1019.1 |
| 20260510110005 | 43 | 56 | 3.0 | 6.0 | 0.00 | 0.00 | 0.00 | 61 | 1019.0 |
| 20260510105503 | 43 | 40 | 2.0 | 5.0 | 0.00 | 0.00 | 0.00 | 61 | 1019.0 |
| 20260510105000 | 43 | 18 | 1.0 | 5.0 | 0.00 | 0.00 | 0.00 | 63 | 1019.0 |
| 20260510104601 | 43 | 43 | 1.0 | 3.0 | 0.00 | 0.00 | 0.00 | 63 | 1018.8 |
| 20260510104103 | 43 | 18 | 0.0 | 2.0 | 0.00 | 0.00 | 0.00 | 64 | 1018.8 |
| 20260510103600 | 43 | 20 | 0.0 | 4.0 | 0.00 | 0.00 | 0.00 | 64 | 1018.7 |
| 20260510103109 | 43 | 333 | 1.0 | 4.0 | 0.00 | 0.00 | 0.00 | 65 | 1018.6 |
| 20260510102558 | 43 | 4 | 0.0 | 3.0 | 0.00 | 0.00 | 0.00 | 66 | 1018.6 |
| 20260510102100 | 42 | 330 | 0.0 | 3.0 | 0.00 | 0.00 | 0.00 | 66 | 1018.4 |
| 20260510101607 | 42 | 281 | 0.0 | 2.0 | 0.00 | 0.00 | 0.00 | 66 | 1018.4 |
| 20260510101055 | 42 | 328 | 0.0 | 2.0 | 0.00 | 0.00 | 0.00 | 66 | 1018.2 |
| 20260510100555 | 42 | 283 | 0.0 | 2.0 | 0.00 | 0.00 | 0.00 | 66 | 1018.1 |
| 20260510100055 | 42 | 315 | 0.0 | 2.0 | 0.00 | 0.00 | 0.00 | 66 | 1017.9 |
| 20260510095552 | 42 | 337 | 0.0 | 2.0 | 0.00 | 0.00 | 0.00 | 67 | 1017.8 |
| 20260510095051 | 42 | 312 | 0.0 | 1.0 | 0.00 | 0.00 | 0.00 | 67 | 1017.8 |
| 20260510094552 | 42 | 318 | 0.0 | 1.0 | 0.00 | 0.00 | 0.00 | 67 | 1017.7 |
| 20260510094050 | 42 | 307 | 0.0 | 1.0 | 0.00 | 0.00 | 0.00 | 67 | 1017.6 |
| 20260510093550 | 42 | 328 | 0.0 | 2.0 | 0.00 | 0.00 | 0.00 | 66 | 1017.6 |
| 20260510093051 | 42 | 332 | 0.0 | 2.0 | 0.00 | 0.00 | 0.00 | 67 | 1017.6 |
| 20260510092553 | 42 | 318 | 0.0 | 1.0 | 0.00 | 0.00 | 0.00 | 67 | 1017.6 |
| 20260510092048 | 42 | 347 | 0.0 | 1.0 | 0.00 | 0.00 | 0.00 | 67 | 1017.6 |
| 20260510091549 | 41 | 346 | 0.0 | 1.0 | 0.00 | 0.00 | 0.00 | 68 | 1017.6 |
| 20260510091048 | 41 | 4 | 0.0 | 1.0 | 0.00 | 0.00 | 0.00 | 68 | 1017.5 |
| 20260510090547 | 41 | 20 | 0.0 | 0.0 | 0.00 | 0.00 | 0.00 | 68 | 1017.4 |
| 20260510090050 | 41 | 332 | 0.0 | 1.0 | 0.00 | 0.00 | 0.00 | 68 | 1017.3 |
| 20260510085544 | 41 | 309 | 0.0 | 1.0 | 0.00 | 0.00 | 0.00 | 69 | 1017.2 |
| 20260510085043 | 42 | 298 | 0.0 | 1.0 | 0.00 | 0.00 | 0.00 | 69 | 1017.1 |
| 20260510084542 | 42 | 264 | 0.0 | 1.0 | 0.00 | 0.00 | 0.00 | 67 | 1017.0 |
| 20260510084041 | 43 | 283 | 0.0 | 2.0 | 0.00 | 0.00 | 0.00 | 66 | 1017.0 |
| 20260510083544 | 43 | 285 | 0.0 | 2.0 | 0.00 | 0.00 | 0.00 | 64 | 1017.0 |
| 20260510083041 | 43 | 290 | 0.0 | 3.0 | 0.00 | 0.00 | 0.00 | 63 | 1017.0 |
| 20260510082540 | 43 | 308 | 0.0 | 3.0 | 0.00 | 0.00 | 0.00 | 65 | 1016.9 |
| 20260510082039 | 43 | 297 | 1.0 | 3.0 | 0.00 | 0.00 | 0.00 | 64 | 1016.8 |
| 20260510081544 | 43 | 269 | 0.0 | 3.0 | 0.00 | 0.00 | 0.00 | 64 | 1016.9 |
| 20260510081039 | 43 | 274 | 1.0 | 3.0 | 0.00 | 0.00 | 0.00 | 64 | 1016.8 |
| 20260510080539 | 43 | 276 | 0.0 | 2.0 | 0.00 | 0.00 | 0.00 | 64 | 1016.7 |
| 20260510080042 | 43 | 287 | 0.0 | 3.0 | 0.00 | 0.00 | 0.00 | 63 | 1016.6 |
| 20260510075536 | 43 | 296 | 1.0 | 3.0 | 0.00 | 0.00 | 0.00 | 63 | 1016.5 |
| 20260510075036 | 43 | 294 | 1.0 | 2.0 | 0.00 | 0.00 | 0.00 | 63 | 1016.5 |
| 20260510074536 | 43 | 298 | 1.0 | 5.0 | 0.00 | 0.00 | 0.00 | 65 | 1016.5 |
| 20260510074037 | 43 | 294 | 2.0 | 5.0 | 0.00 | 0.00 | 0.00 | 65 | 1016.5 |
| 20260510073535 | 43 | 288 | 2.0 | 3.0 | 0.00 | 0.00 | 0.00 | 65 | 1016.5 |
| 20260510073035 | 43 | 283 | 1.0 | 3.0 | 0.00 | 0.00 | 0.00 | 64 | 1016.5 |
| 20260510072535 | 43 | 267 | 1.0 | 3.0 | 0.00 | 0.00 | 0.00 | 64 | 1016.5 |
| 20260510072035 | 43 | 285 | 2.0 | 3.0 | 0.00 | 0.00 | 0.00 | 64 | 1016.5 |
| 20260510071535 | 43 | 288 | 2.0 | 4.0 | 0.00 | 0.00 | 0.00 | 65 | 1016.5 |
| 20260510071034 | 43 | 288 | 1.0 | 4.0 | 0.00 | 0.00 | 0.00 | 68 | 1016.5 |
| 20260510070533 | 42 | 278 | 1.0 | 2.0 | 0.00 | 0.00 | 0.00 | 69 | 1016.5 |
| 20260510070036 | 43 | 276 | 1.0 | 3.0 | 0.00 | 0.00 | 0.00 | 71 | 1016.5 |
| 20260510065532 | 43 | 271 | 1.0 | 3.0 | 0.00 | 0.00 | 0.00 | 71 | 1016.5 |
| 20260510065029 | 43 | 285 | 0.0 | 1.0 | 0.00 | 0.00 | 0.00 | 70 | 1016.5 |
| 20260510064527 | 43 | 288 | 0.0 | 1.0 | 0.00 | 0.00 | 0.00 | 67 | 1016.4 |
| 20260510064025 | 44 | 288 | 0.0 | 1.0 | 0.00 | 0.00 | 0.00 | 66 | 1016.4 |
| 20260510063524 | 45 | 287 | 0.0 | 1.0 | 0.00 | 0.00 | 0.00 | 64 | 1016.4 |
| 20260510063024 | 45 | 295 | 0.0 | 1.0 | 0.00 | 0.00 | 0.00 | 60 | 1016.4 |
| 20260510062523 | 45 | 287 | 0.0 | 1.0 | 0.00 | 0.00 | 0.00 | 58 | 1016.4 |
| 20260510062025 | 45 | 297 | 0.0 | 2.0 | 0.00 | 0.00 | 0.00 | 57 | 1016.4 |
| 20260510061526 | 46 | 307 | 0.0 | 3.0 | 0.00 | 0.00 | 0.00 | 56 | 1016.4 |
| 20260510061020 | 46 | 307 | 0.0 | 3.0 | 0.00 | 0.00 | 0.00 | 55 | 1016.4 |
| 20260510060522 | 46 | 295 | 0.0 | 2.0 | 0.00 | 0.00 | 0.00 | 54 | 1016.4 |
| 20260510060019 | 46 | 290 | 0.0 | 2.0 | 0.00 | 0.00 | 0.00 | 53 | 1016.5 |
| 20260510055518 | 46 | 311 | 0.0 | 2.0 | 0.00 | 0.00 | 0.00 | 52 | 1016.4 |
| 20260510055017 | 46 | 299 | 0.0 | 2.0 | 0.00 | 0.00 | 0.00 | 52 | 1016.3 |
| 20260510054516 | 46 | 308 | 0.0 | 2.0 | 0.00 | 0.00 | 0.00 | 52 | 1016.3 |
| 20260510054015 | 46 | 316 | 0.0 | 1.0 | 0.00 | 0.00 | 0.00 | 51 | 1016.2 |
| 20260510053514 | 46 | 314 | 0.0 | 1.0 | 0.00 | 0.00 | 0.00 | 51 | 1016.2 |
| 20260510053014 | 46 | 319 | 0.0 | 1.0 | 0.00 | 0.00 | 0.00 | 51 | 1016.2 |
| 20260510052512 | 47 | 311 | 0.0 | 1.0 | 0.00 | 0.00 | 0.00 | 50 | 1016.2 |
| 20260510052011 | 47 | 328 | 0.0 | 1.0 | 0.00 | 0.00 | 0.00 | 50 | 1016.1 |
| 20260510051517 | 47 | 328 | 0.0 | 1.0 | 0.00 | 0.00 | 0.00 | 49 | 1016.0 |
| 20260510051009 | 47 | 338 | 0.0 | 1.0 | 0.00 | 0.00 | 0.00 | 48 | 1016.0 |
| 20260510050509 | 47 | 335 | 0.0 | 1.0 | 0.00 | 0.00 | 0.00 | 48 | 1016.0 |
| 20260510050008 | 47 | 326 | 0.0 | 1.0 | 0.00 | 0.00 | 0.00 | 48 | 1015.9 |
| 20260510045510 | 48 | 316 | 0.0 | 2.0 | 0.00 | 0.00 | 0.00 | 48 | 1015.9 |
| 20260510045008 | 48 | 290 | 0.0 | 2.0 | 0.00 | 0.00 | 0.00 | 47 | 1015.9 |
| 20260510044510 | 48 | 299 | 0.0 | 2.0 | 0.00 | 0.00 | 0.00 | 47 | 1016.0 |
| 20260510044007 | 48 | 314 | 0.0 | 2.0 | 0.00 | 0.00 | 0.00 | 47 | 1016.0 |
| 20260510043507 | 48 | 320 | 0.0 | 2.0 | 0.00 | 0.00 | 0.00 | 47 | 1016.0 |
| 20260510043017 | 48 | 285 | 0.0 | 2.0 | 0.00 | 0.00 | 0.00 | 47 | 1016.0 |
| 20260510042510 | 48 | 278 | 0.0 | 2.0 | 0.00 | 0.00 | 0.00 | 47 | 1016.0 |
| 20260510042007 | 48 | 295 | 0.0 | 2.0 | 0.00 | 0.00 | 0.00 | 47 | 1016.0 |
| 20260510041506 | 48 | 328 | 0.0 | 2.0 | 0.00 | 0.00 | 0.00 | 46 | 1015.9 |
| 20260510041006 | 48 | 359 | 0.0 | 3.0 | 0.00 | 0.00 | 0.00 | 46 | 1015.9 |
| 20260510040506 | 47 | 294 | 0.0 | 3.0 | 0.00 | 0.00 | 0.00 | 46 | 1015.8 |
| 20260510040006 | 48 | 298 | 0.0 | 2.0 | 0.00 | 0.00 | 0.00 | 46 | 1015.9 |
| 20260510035504 | 48 | 301 | 0.0 | 2.0 | 0.00 | 0.00 | 0.00 | 45 | 1015.8 |
| 20260510035006 | 48 | 356 | 0.0 | 1.0 | 0.00 | 0.00 | 0.00 | 45 | 1015.8 |
| 20260510034504 | 48 | 345 | 0.0 | 2.0 | 0.00 | 0.00 | 0.00 | 45 | 1015.8 |
| 20260510034005 | 48 | 22 | 0.0 | 2.0 | 0.00 | 0.00 | 0.00 | 45 | 1015.8 |
| 20260510033502 | 48 | 22 | 0.0 | 3.0 | 0.00 | 0.00 | 0.00 | 44 | 1015.7 |
| 20260510033002 | 48 | 25 | 0.0 | 4.0 | 0.00 | 0.00 | 0.00 | 44 | 1015.6 |
| 20260510032501 | 49 | 55 | 0.0 | 5.0 | 0.00 | 0.00 | 0.00 | 43 | 1015.6 |
| 20260510032001 | 49 | 42 | 1.0 | 5.0 | 0.00 | 0.00 | 0.00 | 43 | 1015.5 |
| 20260510031502 | 49 | 13 | 2.0 | 5.0 | 0.00 | 0.00 | 0.00 | 42 | 1015.6 |
| 20260510031100 | 49 | 29 | 2.0 | 5.0 | 0.00 | 0.00 | 0.00 | 42 | 1015.5 |
| 20260510030603 | 49 | 22 | 1.0 | 7.0 | 0.00 | 0.00 | 0.00 | 42 | 1015.5 |
| 20260510030059 | 49 | 332 | 2.0 | 9.0 | 0.00 | 0.00 | 0.00 | 42 | 1015.4 |
| 20260510025558 | 49 | 13 | 1.0 | 9.0 | 0.00 | 0.00 | 0.00 | 41 | 1015.4 |
| 20260510025100 | 50 | 47 | 1.0 | 6.0 | 0.00 | 0.00 | 0.00 | 41 | 1015.2 |
| 20260510024610 | 50 | 343 | 1.0 | 6.0 | 0.00 | 0.00 | 0.00 | 41 | 1015.1 |
| 20260510024055 | 50 | 13 | 1.0 | 5.0 | 0.00 | 0.00 | 0.00 | 41 | 1015.0 |
| 20260510023554 | 50 | 10 | 0.0 | 6.0 | 0.00 | 0.00 | 0.00 | 40 | 1014.9 |
| 20260510023059 | 50 | 318 | 1.0 | 5.0 | 0.00 | 0.00 | 0.00 | 40 | 1014.8 |
| 20260510022553 | 51 | 341 | 1.0 | 7.0 | 0.00 | 0.00 | 0.00 | 40 | 1014.6 |
| 20260510022053 | 51 | 336 | 1.0 | 7.0 | 0.00 | 0.00 | 0.00 | 39 | 1014.6 |
| 20260510021552 | 51 | 35 | 3.0 | 9.0 | 0.00 | 0.00 | 0.00 | 39 | 1014.4 |
| 20260510021050 | 51 | 58 | 1.0 | 6.0 | 0.00 | 0.00 | 0.00 | 39 | 1014.3 |
| 20260510020552 | 51 | 349 | 2.0 | 8.0 | 0.00 | 0.00 | 0.00 | 38 | 1014.2 |
| 20260510020049 | 52 | 357 | 2.0 | 8.0 | 0.00 | 0.00 | 0.00 | 38 | 1014.2 |
| 20260510015651 | 52 | 345 | 2.0 | 9.0 | 0.00 | 0.00 | 0.00 | 38 | 1014.0 |
| 20260510015047 | 52 | 15 | 2.0 | 10.0 | 0.00 | 0.00 | 0.00 | 37 | 1013.8 |
| 20260510014557 | 52 | 9 | 3.0 | 8.0 | 0.00 | 0.00 | 0.00 | 37 | 1013.7 |
| 20260510014045 | 52 | 352 | 2.0 | 8.0 | 0.00 | 0.00 | 0.00 | 37 | 1013.7 |
| 20260510013545 | 52 | 4 | 1.0 | 7.0 | 0.00 | 0.00 | 0.00 | 37 | 1013.5 |
| 20260510013058 | 52 | 26 | 1.0 | 7.0 | 0.00 | 0.00 | 0.00 | 37 | 1013.4 |
| 20260510012548 | 53 | 33 | 1.0 | 8.0 | 0.00 | 0.00 | 0.00 | 37 | 1013.4 |
| 20260510012042 | 53 | 340 | 2.0 | 8.0 | 0.00 | 0.00 | 0.00 | 36 | 1013.2 |
| 20260510011542 | 53 | 37 | 2.0 | 9.0 | 0.00 | 0.00 | 0.00 | 36 | 1013.1 |
| 20260510011040 | 53 | 42 | 3.0 | 8.0 | 0.00 | 0.00 | 0.00 | 35 | 1013.0 |
| 20260510010540 | 54 | 354 | 5.0 | 9.0 | 0.00 | 0.00 | 0.00 | 35 | 1013.0 |
| 20260510010040 | 54 | 48 | 2.0 | 8.0 | 0.00 | 0.00 | 0.00 | 34 | 1012.9 |
| 20260510005540 | 54 | 339 | 4.0 | 9.0 | 0.00 | 0.00 | 0.00 | 34 | 1012.8 |
| 20260510005039 | 55 | 37 | 4.0 | 13.0 | 0.00 | 0.00 | 0.00 | 34 | 1012.8 |
| 20260510004545 | 55 | 63 | 5.0 | 13.0 | 0.00 | 0.00 | 0.00 | 34 | 1012.7 |
| 20260510004139 | 55 | 20 | 5.0 | 10.0 | 0.00 | 0.00 | 0.00 | 33 | 1012.6 |
| 20260510003538 | 56 | 328 | 2.0 | 10.0 | 0.00 | 0.00 | 0.00 | 34 | 1012.6 |
| 20260510003037 | 56 | 357 | 4.0 | 10.0 | 0.00 | 0.00 | 0.00 | 34 | 1012.7 |
| 20260510002537 | 56 | 40 | 4.0 | 11.0 | 0.00 | 0.00 | 0.00 | 33 | 1012.7 |
| 20260510002037 | 56 | 330 | 6.0 | 11.0 | 0.00 | 0.00 | 0.00 | 33 | 1012.5 |
| 20260510001536 | 56 | 33 | 5.0 | 10.0 | 0.00 | 0.00 | 0.00 | 34 | 1012.5 |
| 20260510001036 | 56 | 37 | 5.0 | 10.0 | 0.00 | 0.00 | 0.00 | 33 | 1012.5 |
| 20260510000534 | 56 | 11 | 5.0 | 10.0 | 0.00 | 0.00 | 0.00 | 33 | 1012.3 |
| 20260510000035 | 56 | 89 | 2.0 | 12.0 | 0.00 | 0.00 | 0.00 | 34 | 1012.3 |
| 20260509235533 | 56 | 13 | 4.0 | 12.0 | 0.00 | 0.00 | 0.00 | 33 | 1012.2 |
| 20260509235032 | 56 | 31 | 3.0 | 12.0 | 0.00 | 0.00 | 0.00 | 33 | 1012.1 |
| 20260509234534 | 56 | 47 | 6.0 | 10.0 | 0.00 | 0.00 | 0.00 | 33 | 1012.1 |
| 20260509234031 | 56 | 354 | 6.0 | 9.0 | 0.00 | 0.00 | 0.00 | 33 | 1012.1 |
| 20260509233530 | 56 | 22 | 4.0 | 12.0 | 0.00 | 0.00 | 0.00 | 33 | 1012.0 |
| 20260509233030 | 56 | 25 | 6.0 | 12.0 | 0.00 | 0.00 | 0.00 | 32 | 1012.0 |
| 20260509232530 | 57 | 27 | 4.0 | 13.0 | 0.00 | 0.00 | 0.00 | 32 | 1011.9 |
| 20260509232029 | 57 | 25 | 6.0 | 13.0 | 0.00 | 0.00 | 0.00 | 32 | 1011.9 |
| 20260509231529 | 56 | 6 | 6.0 | 13.0 | 0.00 | 0.00 | 0.00 | 32 | 1011.7 |
| 20260509231028 | 57 | 345 | 5.0 | 18.0 | 0.00 | 0.00 | 0.00 | 32 | 1011.8 |
| 20260509230528 | 57 | 333 | 6.0 | 18.0 | 0.00 | 0.00 | 0.00 | 32 | 1011.8 |
| 20260509230028 | 57 | 317 | 6.0 | 19.0 | 0.00 | 0.00 | 0.00 | 32 | 1011.7 |
| 20260509225528 | 57 | 322 | 4.0 | 19.0 | 0.00 | 0.00 | 0.00 | 32 | 1011.6 |
| 20260509225027 | 57 | 260 | 5.0 | 15.0 | 0.00 | 0.00 | 0.00 | 33 | 1011.5 |
| 20260509224526 | 57 | 345 | 8.0 | 15.0 | 0.00 | 0.00 | 0.00 | 33 | 1011.5 |
| 20260509224025 | 57 | 33 | 8.0 | 13.0 | 0.00 | 0.00 | 0.00 | 32 | 1011.4 |
| 20260509223524 | 57 | 313 | 4.0 | 16.0 | 0.00 | 0.00 | 0.00 | 33 | 1011.3 |
| 20260509223025 | 57 | 323 | 7.0 | 16.0 | 0.00 | 0.00 | 0.00 | 32 | 1011.3 |
| 20260509222528 | 57 | 34 | 6.0 | 18.0 | 0.00 | 0.00 | 0.00 | 32 | 1011.4 |
| 20260509222025 | 57 | 50 | 11.0 | 18.0 | 0.00 | 0.00 | 0.00 | 31 | 1011.3 |
| 20260509221522 | 57 | 33 | 5.0 | 13.0 | 0.00 | 0.00 | 0.00 | 32 | 1011.3 |
| 20260509221022 | 57 | 4 | 7.0 | 15.0 | 0.00 | 0.00 | 0.00 | 31 | 1011.1 |
| 20260509220521 | 57 | 40 | 5.0 | 15.0 | 0.00 | 0.00 | 0.00 | 30 | 1011.2 |
| 20260509220021 | 57 | 352 | 6.0 | 15.0 | 0.00 | 0.00 | 0.00 | 31 | 1011.1 |
| 20260509215521 | 57 | 25 | 7.0 | 16.0 | 0.00 | 0.00 | 0.00 | 33 | 1011.1 |
| 20260509215023 | 57 | 4 | 5.0 | 16.0 | 0.00 | 0.00 | 0.00 | 33 | 1011.1 |
| 20260509214520 | 57 | 35 | 6.0 | 12.0 | 0.00 | 0.00 | 0.00 | 33 | 1011.1 |
| 20260509214019 | 57 | 332 | 6.0 | 12.0 | 0.00 | 0.00 | 0.00 | 32 | 1011.1 |
| 20260509213519 | 57 | 15 | 5.0 | 13.0 | 0.00 | 0.00 | 0.00 | 32 | 1011.0 |
| 20260509213018 | 57 | 332 | 6.0 | 13.0 | 0.00 | 0.00 | 0.00 | 33 | 1011.0 |
| 20260509212517 | 57 | 10 | 6.0 | 14.0 | 0.00 | 0.00 | 0.00 | 33 | 1010.9 |
| 20260509212017 | 57 | 336 | 8.0 | 18.0 | 0.00 | 0.00 | 0.00 | 33 | 1010.9 |
| 20260509211617 | 57 | 43 | 7.0 | 18.0 | 0.00 | 0.00 | 0.00 | 33 | 1010.8 |
| 20260509211019 | 57 | 337 | 3.0 | 14.0 | 0.00 | 0.00 | 0.00 | 34 | 1010.8 |
| 20260509210516 | 57 | 53 | 5.0 | 16.0 | 0.00 | 0.00 | 0.00 | 34 | 1010.8 |
| 20260509210016 | 57 | 30 | 8.0 | 15.0 | 0.00 | 0.00 | 0.00 | 34 | 1010.6 |
| 20260509205513 | 57 | 8 | 6.0 | 16.0 | 0.00 | 0.00 | 0.00 | 34 | 1010.7 |
| 20260509205013 | 57 | 336 | 8.0 | 16.0 | 0.00 | 0.00 | 0.00 | 33 | 1010.8 |
| 20260509204516 | 56 | 337 | 7.0 | 17.0 | 0.00 | 0.00 | 0.00 | 35 | 1010.7 |
| 20260509204014 | 57 | 335 | 8.0 | 18.0 | 0.00 | 0.00 | 0.00 | 33 | 1010.6 |
| 20260509203510 | 57 | 22 | 7.0 | 18.0 | 0.00 | 0.00 | 0.00 | 34 | 1010.7 |
| 20260509203012 | 57 | 44 | 8.0 | 13.0 | 0.00 | 0.00 | 0.00 | 34 | 1010.6 |
| 20260509202511 | 57 | 38 | 4.0 | 16.0 | 0.00 | 0.00 | 0.00 | 35 | 1010.6 |
| 20260509202007 | 57 | 294 | 4.0 | 16.0 | 0.00 | 0.00 | 0.00 | 36 | 1010.6 |
| 20260509201506 | 56 | 352 | 5.0 | 19.0 | 0.00 | 0.00 | 0.00 | 36 | 1010.5 |
| 20260509201006 | 56 | 358 | 7.0 | 22.0 | 0.00 | 0.00 | 0.00 | 34 | 1010.5 |
| 20260509200504 | 56 | 63 | 14.0 | 22.0 | 0.00 | 0.00 | 0.00 | 34 | 1010.4 |
| 20260509200004 | 56 | 9 | 6.0 | 14.0 | 0.00 | 0.00 | 0.00 | 33 | 1010.4 |
| 20260509195503 | 56 | 349 | 5.0 | 15.0 | 0.00 | 0.00 | 0.00 | 36 | 1010.5 |
| 20260509195002 | 56 | 354 | 6.0 | 15.0 | 0.00 | 0.00 | 0.00 | 36 | 1010.3 |
| 20260509194501 | 56 | 22 | 7.0 | 15.0 | 0.00 | 0.00 | 0.00 | 35 | 1010.3 |
| 20260509194001 | 55 | 73 | 6.0 | 19.0 | 0.00 | 0.00 | 0.00 | 35 | 1010.2 |
| 20260509193600 | 56 | 25 | 8.0 | 19.0 | 0.00 | 0.00 | 0.00 | 34 | 1010.3 |
| 20260509193100 | 56 | 316 | 7.0 | 16.0 | 0.00 | 0.00 | 0.00 | 34 | 1010.3 |
| 20260509192601 | 56 | 46 | 5.0 | 16.0 | 0.00 | 0.00 | 0.00 | 35 | 1010.2 |
| 20260509192103 | 56 | 18 | 5.0 | 17.0 | 0.00 | 0.00 | 0.00 | 35 | 1010.3 |
| 20260509191600 | 56 | 58 | 7.0 | 17.0 | 0.00 | 0.00 | 0.00 | 34 | 1010.2 |
| 20260509191100 | 55 | 12 | 6.0 | 16.0 | 0.00 | 0.00 | 0.00 | 35 | 1010.1 |
| 20260509190600 | 56 | 18 | 8.0 | 16.0 | 0.00 | 0.00 | 0.00 | 35 | 1010.1 |
| 20260509190058 | 56 | 54 | 8.0 | 14.0 | 0.00 | 0.00 | 0.00 | 36 | 1010.0 |
| 20260509185558 | 56 | 5 | 7.0 | 14.0 | 0.00 | 0.00 | 0.00 | 37 | 1009.9 |
| 20260509185058 | 55 | 63 | 5.0 | 13.0 | 0.00 | 0.00 | 0.00 | 35 | 1009.9 |
| 20260509184558 | 55 | 30 | 8.0 | 14.0 | 0.00 | 0.00 | 0.00 | 37 | 1009.9 |
| 20260509184056 | 55 | 33 | 8.0 | 14.0 | 0.00 | 0.00 | 0.00 | 36 | 1010.0 |
| 20260509183556 | 55 | 20 | 5.0 | 14.0 | 0.00 | 0.00 | 0.00 | 38 | 1009.8 |
| 20260509183055 | 55 | 360 | 8.0 | 11.0 | 0.00 | 0.00 | 0.00 | 37 | 1009.7 |
| 20260509182555 | 55 | 326 | 4.0 | 10.0 | 0.00 | 0.00 | 0.00 | 38 | 1009.7 |
| 20260509182054 | 55 | 26 | 3.0 | 16.0 | 0.00 | 0.00 | 0.00 | 37 | 1009.7 |
| 20260509181554 | 55 | 33 | 8.0 | 16.0 | 0.00 | 0.00 | 0.00 | 37 | 1009.7 |
| 20260509181053 | 55 | 5 | 6.0 | 17.0 | 0.00 | 0.00 | 0.00 | 37 | 1009.7 |
| 20260509180551 | 55 | 13 | 6.0 | 15.0 | 0.00 | 0.00 | 0.00 | 39 | 1009.7 |
| 20260509180051 | 54 | 60 | 8.0 | 15.0 | 0.00 | 0.00 | 0.00 | 38 | 1009.7 |
| 20260509175551 | 54 | 340 | 6.0 | 15.0 | 0.00 | 0.00 | 0.00 | 38 | 1009.7 |
| 20260509175050 | 54 | 32 | 7.0 | 15.0 | 0.00 | 0.00 | 0.00 | 38 | 1009.8 |
| 20260509174550 | 54 | 354 | 7.0 | 14.0 | 0.00 | 0.00 | 0.00 | 39 | 1009.7 |
| 20260509174048 | 54 | 352 | 10.0 | 13.0 | 0.00 | 0.00 | 0.00 | 40 | 1009.5 |
| 20260509173547 | 54 | 16 | 6.0 | 14.0 | 0.00 | 0.00 | 0.00 | 41 | 1009.5 |
| 20260509173114 | 54 | 15 | 6.0 | 16.0 | 0.00 | 0.00 | 0.00 | 41 | 1009.6 |
| 20260509172546 | 54 | 356 | 7.0 | 16.0 | 0.00 | 0.00 | 0.00 | 44 | 1009.4 |
| 20260509172046 | 53 | 16 | 6.0 | 12.0 | 0.00 | 0.00 | 0.00 | 43 | 1009.4 |
| 20260509171547 | 53 | 304 | 5.0 | 17.0 | 0.00 | 0.00 | 0.00 | 43 | 1009.3 |
| 20260509171047 | 53 | 323 | 6.0 | 17.0 | 0.00 | 0.00 | 0.00 | 44 | 1009.3 |
| 20260509170548 | 53 | 16 | 6.0 | 17.0 | 0.00 | 0.00 | 0.00 | 43 | 1009.3 |
| 20260509170053 | 53 | 311 | 7.0 | 12.0 | 0.00 | 0.00 | 0.00 | 45 | 1009.2 |
| 20260509165543 | 53 | 333 | 6.0 | 12.0 | 0.00 | 0.00 | 0.00 | 43 | 1009.3 |
| 20260509165042 | 53 | 42 | 8.0 | 23.0 | 0.00 | 0.00 | 0.00 | 44 | 1009.2 |
| 20260509164542 | 53 | 48 | 14.0 | 23.0 | 0.00 | 0.00 | 0.00 | 42 | 1009.1 |
| 20260509164040 | 52 | 23 | 4.0 | 18.0 | 0.00 | 0.00 | 0.00 | 45 | 1009.1 |
| 20260509163539 | 52 | 18 | 9.0 | 18.0 | 0.00 | 0.00 | 0.00 | 44 | 1009.1 |
| 20260509163041 | 52 | 58 | 7.0 | 14.0 | 0.00 | 0.00 | 0.00 | 43 | 1009.0 |
| 20260509162542 | 52 | 1 | 8.0 | 14.0 | 0.00 | 0.00 | 0.00 | 45 | 1008.9 |
| 20260509162038 | 52 | 54 | 7.0 | 21.0 | 0.00 | 0.00 | 0.00 | 46 | 1008.9 |
| 20260509161543 | 52 | 12 | 9.0 | 17.0 | 0.00 | 0.00 | 0.00 | 46 | 1008.9 |
| 20260509161038 | 52 | 67 | 8.0 | 19.0 | 0.00 | 0.00 | 0.00 | 45 | 1008.8 |
| 20260509160536 | 52 | 35 | 8.0 | 16.0 | 0.00 | 0.00 | 0.00 | 47 | 1008.8 |
| 20260509160036 | 52 | 29 | 10.0 | 25.0 | 0.00 | 0.00 | 0.00 | 45 | 1008.8 |
| 20260509155535 | 52 | 77 | 10.0 | 25.0 | 0.00 | 0.00 | 0.00 | 45 | 1008.6 |
| 20260509155136 | 52 | 44 | 12.0 | 22.0 | 0.00 | 0.00 | 0.00 | 44 | 1008.7 |
| 20260509154513 | 52 | 46 | 4.0 | 16.0 | 0.00 | 0.00 | 0.00 | 48 | 1008.5 |
| 20260509154101 | 52 | 315 | 6.0 | 15.0 | 0.00 | 0.00 | 0.00 | 48 | 1008.5 |
| 20260509153603 | 52 | 6 | 7.0 | 15.0 | 0.00 | 0.00 | 0.00 | 49 | 1008.3 |
| 20260509153058 | 52 | 9 | 5.0 | 10.0 | 0.00 | 0.00 | 0.00 | 50 | 1008.3 |
| 20260509152602 | 51 | 41 | 6.0 | 12.0 | 0.00 | 0.00 | 0.00 | 53 | 1008.1 |
| 20260509152057 | 51 | 63 | 7.0 | 15.0 | 0.00 | 0.00 | 0.00 | 54 | 1008.1 |
| 20260509151616 | 51 | 42 | 8.0 | 15.0 | 0.00 | 0.00 | 0.00 | 52 | 1008.0 |
| 20260509151056 | 51 | 32 | 5.0 | 17.0 | 0.00 | 0.00 | 0.00 | 53 | 1007.9 |
| 20260509150555 | 51 | 18 | 5.0 | 17.0 | 0.00 | 0.00 | 0.00 | 52 | 1007.9 |
| 20260509150054 | 51 | 293 | 6.0 | 16.0 | 0.00 | 0.00 | 0.00 | 55 | 1007.7 |
| 20260509145553 | 51 | 353 | 4.0 | 17.0 | 0.00 | 0.00 | 0.00 | 56 | 1007.7 |
| 20260509145052 | 51 | 41 | 8.0 | 16.0 | 0.00 | 0.00 | 0.00 | 56 | 1007.6 |
| 20260509144553 | 51 | 11 | 7.0 | 17.0 | 0.00 | 0.00 | 0.00 | 56 | 1007.6 |
| 20260509144054 | 50 | 48 | 11.0 | 17.0 | 0.00 | 0.00 | 0.00 | 59 | 1007.5 |
| 20260509143550 | 50 | 89 | 3.0 | 12.0 | 0.00 | 0.00 | 0.00 | 59 | 1007.4 |
| 20260509143527 | 50 | 329 | 5.0 | 12.0 | 0.00 | 0.00 | 0.00 | 59 | 1007.4 |
| 20260509143057 | 50 | 314 | 3.0 | 12.0 | 0.00 | 0.00 | 0.00 | 61 | 1007.4 |
| 20260509142548 | 50 | 349 | 3.0 | 14.0 | 0.00 | 0.00 | 0.00 | 63 | 1007.3 |
| 20260509142148 | 50 | 6 | 4.0 | 14.0 | 0.00 | 0.00 | 0.00 | 63 | 1007.3 |
| 20260509141550 | 50 | 4 | 5.0 | 13.0 | 0.00 | 0.00 | 0.00 | 63 | 1007.1 |
| 20260509141200 | 50 | 51 | 3.0 | 12.0 | 0.00 | 0.00 | 0.00 | 64 | 1007.1 |
| 20260509140546 | 50 | 26 | 4.0 | 18.0 | 0.00 | 0.00 | 0.00 | 67 | 1007.1 |
| 20260509140047 | 49 | 57 | 5.0 | 18.0 | 0.00 | 0.00 | 0.00 | 67 | 1007.0 |
| 20260509135549 | 49 | 10 | 8.0 | 17.0 | 0.00 | 0.00 | 0.00 | 65 | 1007.0 |
| 20260509135050 | 49 | 60 | 6.0 | 16.0 | 0.00 | 0.00 | 0.00 | 66 | 1007.0 |
| 20260509134547 | 49 | 68 | 6.0 | 16.0 | 0.00 | 0.00 | 0.00 | 68 | 1007.0 |
| 20260509134045 | 49 | 79 | 7.0 | 16.0 | 0.00 | 0.00 | 0.00 | 70 | 1006.9 |
| 20260509133544 | 48 | 48 | 7.0 | 11.0 | 0.00 | 0.00 | 0.00 | 72 | 1006.8 |
| 20260509133144 | 48 | 4 | 5.0 | 13.0 | 0.00 | 0.00 | 0.00 | 72 | 1006.8 |
| 20260509132558 | 48 | 63 | 7.0 | 16.0 | 0.00 | 0.00 | 0.00 | 72 | 1006.6 |
| 20260509132043 | 48 | 56 | 8.0 | 16.0 | 0.00 | 0.00 | 0.00 | 73 | 1006.6 |
| 20260509131555 | 48 | 59 | 8.0 | 15.0 | 0.00 | 0.00 | 0.00 | 75 | 1006.5 |
| 20260509131039 | 48 | 60 | 6.0 | 15.0 | 0.00 | 0.00 | 0.00 | 78 | 1006.5 |
| 20260509130539 | 48 | 39 | 8.0 | 15.0 | 0.00 | 0.00 | 0.00 | 79 | 1006.3 |
| 20260509130057 | 48 | 56 | 5.0 | 9.0 | 0.00 | 0.00 | 0.00 | 80 | 1006.2 |
| 20260509125536 | 48 | 358 | 5.0 | 11.0 | 0.00 | 0.00 | 0.00 | 81 | 1006.1 |
| 20260509125035 | 48 | 18 | 7.0 | 11.0 | 0.00 | 0.00 | 0.00 | 81 | 1006.0 |
| 20260509124537 | 47 | 47 | 1.0 | 8.0 | 0.00 | 0.00 | 0.00 | 84 | 1005.9 |
| 20260509124034 | 47 | 46 | 4.0 | 8.0 | 0.00 | 0.00 | 0.00 | 84 | 1005.8 |
| 20260509123533 | 47 | 58 | 2.0 | 8.0 | 0.00 | 0.00 | 0.00 | 85 | 1005.7 |
| 20260509123120 | 47 | 61 | 4.0 | 8.0 | 0.00 | 0.00 | 0.00 | 86 | 1005.6 |